Simultaneous Nadir Overpasses (SNOs) Predictions

Prediction of SNOs between GOES-15 and METOP-A Satellite Orbit:

Table of predicted SNOs for the next 14.0 days since TLE Epoch: 2/6/2015
Index Date Time (GOES-15) GOES-15 Lat,Lon METOP-A Lat,Lon Distance(km) Time Diff (sec)
1 02/08/2015 06:40:54 -0.05,-135.17 -0.47,-137.17 227.08 80
2 02/09/2015 06:17:35 -0.05,-135.19 0.60,-132.17 343.86 80
3 02/10/2015 18:36:28 0.05,-135.28 0.38,-136.74 166.62 80
4 02/11/2015 18:15:50 0.05,-135.30 -0.75,-131.75 404.09 80
5 02/13/2015 06:37:31 -0.05,-135.26 -0.27,-136.36 123.84 80
6 02/14/2015 06:14:11 -0.04,-135.28 0.80,-131.36 446.11 80
7 02/15/2015 18:33:05 0.05,-135.35 0.16,-135.93 66.09 80
8 02/18/2015 06:34:07 -0.05,-135.32 -0.10,-135.54 25.17 80
9 02/20/2015 18:32:20 0.05,-135.38 -0.02,-135.11 30.83 80




NCC Satellite Simultaneous Nadir Overpasses (SNOs) Prediction Service
